Regional Weather Roundup
Issued by NWS Northern Indiana

Home | Current Version | Previous Version | Graphics & Text | Print | Product List | Glossary On
Versions: 1 2 3 4 5 6 7 8 9 10 11 12 13 14 15 16 17 18 19 20 21 22 23 24 25 26 27 28 29 30 31 32 33 34 35 36 37 38 39 40 41 42 43 44 45 46 47 48 49 50
000
ASUS43 KIWX 281910
RWRIWX

KIWX WEATHER ROUNDUP
NATIONAL WEATHER SERVICE NORTHERN INDIANA
300 PM EDT THU APR 28 2016

NOTE: "FAIR" INDICATES FEW OR NO CLOUDS BELOW 12,000 FEET WITH NO
SIGNIFICANT WEATHER AND/OR OBSTRUCTIONS TO VISIBILITY.

* THESE STATIONS ARE NOT UNDER NWS QUALITY CONTROL. THEY ALSO MAY NOT
  REPORT WEATHER SUCH AS PRECIPITATION OR FOG.

INZ001>027-282000-
NORTHERN INDIANA

CITY           SKY/WX    TMP DP  RH WIND       PRES   REMARKS
GARY*          CLOUDY    48  48 100 N7        29.90R
VALPARAISO     CLOUDY    54  48  80 E7        29.89R
MICHIGAN CITY* CLOUDY    54  46  76 CALM      29.89S
LAPORTE*       CLOUDY    56  49  77 E7        29.89S
KNOX*          CLOUDY    55  43  62 E5        29.87F
SOUTH BEND     CLOUDY    51  44  77 E9        29.91R
ELKHART*       CLOUDY    50  48  93 E10       29.91R
GOSHEN         CLOUDY    52  45  77 E12       29.90R
MONTICELLO*    CLOUDY    57  49  77 E5        29.86R
LOGANSPORT*    CLOUDY    55  50  82 NE7       29.87
ROCHESTER*     PTSUNNY   59  52  77 E9        29.87F
WARSAW*        CLOUDY    52  46  82 SE9       29.89S
ANGOLA*        CLOUDY    48  37  66 E13       29.92R
FORT WAYNE     CLOUDY    50  45  83 E14       29.91R
HUNTINGTON*    CLOUDY   N/A N/A N/A NE8       29.90R
PERU/GRISSOM   CLOUDY    57  52  85 E12       29.85F
MARION*        CLOUDY    55  50  83 NE10      29.88R HAZE

$$
INZ028>050-282000-
CENTRAL INDIANA

CITY           SKY/WX    TMP DP  RH WIND       PRES   REMARKS
LAFAYETTE      PTSUNNY   60  54  80 NE6       29.85R
KOKOMO*        CLOUDY    55  50  82 E14       29.86F
MUNCIE*        CLOUDY    64  56  75 NE9       29.84S
INDIANAPOLIS   PTSUNNY   72  56  57 W15       29.79S

$$
MIZ043>046-050>051-056>058-064>065-071>073-077>080-282000-
SOUTHWEST LOWER MICHIGAN

CITY           SKY/WX    TMP DP  RH WIND       PRES   REMARKS
BATTLE CREEK   CLOUDY    46  39  76 E12       29.95R
BENTON HARBOR  CLOUDY    51  42  71 E10       29.91S
COLDWATER*     CLOUDY    49  39  67 E15       29.93S
HILLSDALE*     CLOUDY    47  38  72 E12       29.94R
HOLLAND        CLOUDY    43  39  86 E12       29.97R
GRAND RAPIDS   CLOUDY    42  38  85 E10       29.98R
KALAMAZOO      CLOUDY    48  39  71 E6        29.94R
STURGIS*       CLOUDY    50  42  72 E14       29.91S
THREE RIVERS*  CLOUDY    51  42  71 E9        29.92S

$$
OHZ001>008-015>018-024>025-282000-
NORTHWEST OHIO

CITY           SKY/WX    TMP DP  RH WIND       PRES   REMARKS
WAUSEON*         N/A     50  43  76 NE18      29.92S
DEFIANCE       CLOUDY    53  42  66 E13       29.92R
FINDLAY        CLOUDY    50  42  74 E14       29.90S
TOLEDO EXPRESS CLOUDY    48  38  68 E15G25    29.92F
TOLEDO METCALF CLOUDY    48  38  68 E14G23    29.94F
LIMA           CLOUDY    50  47  89 NE12      29.89R

$$
AND FOR LAKE MICHIGAN COASTAL AND OPEN LAKE BUOY OBSERVATIONS

STATION/POSITION TEMP    WIND        PRES    VSBY  WAVE
                 AIR SEA DIR/SP/G                  HT/PER
                 (F)     (DEG/KT/KT) (MB)    (MI)  (FT/S)
CALUMET HARBOR    45      10/ 12/ 15 1011.7R
MICHIGAN CITY     50     110/  3/  5   N/A
BURNS HARBOR      51      60/  9/ 11 1012.2F
SAINT JOSEPH      52      30/  2/  8 1012.9F
SOUTH LAKE BUOY   40 40   70/ 16/ 17 1014.0S         3/ 5
4 MI NW BRIDGMAN  50 48   80/  8/ 10   N/A           2/ 4

$$
&&




USA.gov is the U.S. government's official web portal to all federal, state and local government web resources and services.